Home > Weather > Metairie > Past weeks

Flag for USA Past Weather in Metairie, Louisiana, USA — Yesterday and Last 2 Weeks

Now
77 °F

Thunderstorms. Fog.


Feels Like: 78 °F
Forecast: 78 / 86 °F
Wind: 13 mph from Northeast

Location: New Orleans International Airport

Current Time: Jun 29, 2016 at 6:43:12 PM

Latest Report: Jun 29, 2016 at 5:53 PM


Visibility: 6 mi

Pressure: 29.94 "Hg

Humidity: 88%

Dew Point: 73 °F

Location of MetairieLocation

Past Weather in Metairie — Graph

°F

Metairie Temperature Yesterday

Maximum temperature yesterday: 93 °F (at 1:53 PM)
Minimum temperature yesterday: 77 °F (at 2:53 AM)
Average temperature yesterday: 82 °F

High & Low Weather Summary for the Past Weeks

 TemperatureHumidityPressure
High98 °F (Jun 26, 2:53 PM)91% (Jun 19, 2:53 AM)30.24 "Hg (Jun 19, 2:53 AM)
Low73 °F (Jun 18, 11:53 AM)31% (Jun 23, 4:53 PM)29.90 "Hg (Jun 17, 6:53 PM)
Average85 °F70%30.06 "Hg
* Reported Jun 14 4:53 PM — Jun 29 4:53 PM, Metairie, Weather by CustomWeather, © 2016

Note: Actual official high and low records may vary slightly from our data, if they occured in-between our weather recording intervals... More about our weather records

Advertising

Metairie Weather History for the Previous 24 Hours

Scroll right to see more
 ConditionsComfort  
Time TempWeatherWind HumidityBarometerVisibility
4:53 PM
Wed, Jun 29
87 °FThunderstorms. Partly sunny.8 mph65%29.94 "Hg10 mi
3:59 PM82 °FBroken clouds.9 mph77%29.92 "Hg10 mi
2:53 PM90 °FScattered clouds.10 mph61%29.94 "Hg10 mi
1:53 PM91 °FScattered clouds.8 mph57%29.95 "Hg10 mi
12:53 PM90 °FBroken clouds.10 mph59%29.96 "Hg10 mi
11:53 AM89 °FBroken clouds.10 mph65%29.98 "Hg10 mi
10:53 AM84 °FBroken clouds.9 mph77%29.98 "Hg10 mi
9:57 AM84 °FThunderstorms. Broken clouds.7 mph74%29.98 "Hg10 mi
8:53 AM83 °FMostly cloudy.No wind79%29.98 "Hg10 mi
7:53 AM81 °FPartly sunny.No wind82%29.98 "Hg10 mi
6:53 AM80 °FPassing clouds.3 mph85%29.96 "Hg10 mi
5:53 AM77 °FPartly cloudy.No wind90%29.94 "Hg10 mi
4:53 AM77 °FPartly cloudy.3 mph90%29.93 "Hg10 mi
3:53 AM77 °FPartly cloudy.5 mph88%29.93 "Hg10 mi
2:53 AM77 °FPassing clouds.5 mph88%29.95 "Hg10 mi
1:53 AM77 °FPartly cloudy.5 mph90%29.96 "Hg9 mi
12:53 AM78 °FPassing clouds.5 mph87%29.97 "Hg9 mi
11:53 PM
Tue, Jun 28
79 °FPassing clouds.3 mph84%29.98 "Hg10 mi
10:53 PM80 °FPassing clouds.No wind79%29.98 "Hg10 mi
9:53 PM81 °FLight rain. Partly cloudy.6 mph77%29.98 "Hg10 mi
8:53 PM81 °FBroken clouds.10 mph74%29.97 "Hg10 mi
7:53 PM80 °FBroken clouds.14 mph79%29.95 "Hg10 mi
6:53 PM81 °FMore clouds than sun.10 mph77%29.93 "Hg10 mi
Weather by CustomWeather, © 2016

See weather overviewHow to use our weather pages